Location: Unspecified
(43.4354°N, 0.0000°E)
Time: 04:38:20
(UTC+00:00)

S-56A Canister/Altair - Pass Details

Date: 27 June 2019
Orbit: 632 x 2500 km, 38.9° (Epoch: 21 July)

Event Time Altitude Azimuth Distance (km) Brightness Sun altitude
Rises 16:57:01 0° 267° (W) 5,158 13.0 27.5°
Reaches altitude 10° 17:00:55 10° 265° (W) 3,866 12.7 26.8°
Maximum altitude 17:10:12 62° 188° (S) 1,303 9.1 25.1°
Drops below altitude 10° 17:16:16 10° 108° (ESE) 2,583 9.7 24.0°
Sets 17:18:25 0° 105° (ESE) 3,359 10.2 23.7°
